GW7285 Weather Reports


time (UTC)temp
F
wind
direction
speed
knots
gust
knots
rain 1hr
in
rain 24hr
in
rain mn
in
humidity
%
barometer
mb
20260507155233 62 238 1.7 9.6 0.00 0.00 0.00 60 1017.3
20260507154730 62 134 0.9 7.8 0.00 0.00 0.00 63 1017.2
20260507154227 61 107 3.5 7.0 0.00 0.00 0.00 63 1017.3
20260507153724 62 136 4.3 7.0 0.00 0.00 0.00 61 1017.3
20260507153220 61 123 1.7 3.5 0.00 0.00 0.00 61 1017.4
20260507152717 62 74 0.9 7.0 0.00 0.00 0.00 63 1017.6
20260507152213 60 126 1.7 5.2 0.00 0.00 0.00 65 1017.4
20260507151709 60 218 3.5 6.1 0.00 0.00 0.00 63 1017.5
20260507151206 60 187 4.3 8.7 0.00 0.00 0.00 60 1017.6
20260507150703 59 265 2.6 7.8 0.00 0.00 0.00 63 1017.5
20260507150159 60 110 2.6 5.2 0.00 0.00 0.00 64 1017.4
20260507145655 59 130 1.7 7.8 0.00 0.00 0.00 62 1017.6
20260507145152 59 150 0.9 5.2 0.00 0.00 0.00 66 1017.7
20260507144649 59 190 0.0 7.8 0.00 0.00 0.00 66 1017.5
20260507144147 59 288 1.7 6.1 0.00 0.00 0.00 65 1017.5
20260507143643 59 172 2.6 5.2 0.00 0.00 0.00 64 1017.5
20260507143141 58 182 2.6 5.2 0.00 0.00 0.00 66 1017.3
20260507142636 58 156 0.0 2.6 0.00 0.00 0.00 66 1017.3
20260507142133 57 121 0.9 6.1 0.00 0.00 0.00 67 1017.4
20260507141629 58 221 3.5 5.2 0.00 0.00 0.00 66 1017.5
20260507141126 57 120 1.7 6.1 0.00 0.00 0.00 66 1017.4
20260507140623 57 152 3.5 3.5 0.00 0.00 0.00 65 1017.4
20260507140120 57 110 0.0 3.5 0.00 0.00 0.00 69 1017.6
20260507135617 57 118 0.0 5.2 0.00 0.00 0.00 70 1017.7
20260507135115 57 126 1.7 2.6 0.00 0.00 0.00 67 1017.7
20260507134610 55 146 0.0 2.6 0.00 0.00 0.00 70 1017.7
20260507134107 55 138 0.9 1.7 0.00 0.00 0.00 71 1017.7
20260507133603 55 237 0.9 3.5 0.00 0.00 0.00 72 1017.6
20260507133101 54 118 0.0 3.5 0.00 0.00 0.00 73 1017.6
20260507132557 54 155 0.9 5.2 0.00 0.00 0.00 74 1017.8
20260507132054 54 230 3.5 3.5 0.00 0.00 0.00 71 1017.7
20260507131551 53 123 1.7 2.6 0.00 0.00 0.00 72 1017.8
20260507131048 53 158 0.9 2.6 0.00 0.00 0.00 73 1017.6
20260507130545 53 113 0.0 2.6 0.00 0.00 0.00 74 1018.0
20260507130043 53 136 1.7 2.6 0.00 0.00 0.00 74 1017.9
20260507125541 52 188 2.6 5.2 0.00 0.00 0.00 73 1018.0
20260507125038 52 202 1.7 3.5 0.00 0.00 0.00 73 1017.9
20260507124534 51 133 0.9 2.6 0.00 0.00 0.00 74 1018.0
20260507124032 51 116 0.0 5.2 0.00 0.00 0.00 75 1017.9
20260507123530 50 133 0.0 0.9 0.00 0.00 0.00 75 1017.8
20260507123027 50 234 0.9 1.7 0.00 0.00 0.00 76 1017.7
20260507122522 49 59 0.0 1.7 0.00 0.00 0.00 77 1017.8
20260507122018 48 109 0.0 1.7 0.00 0.00 0.00 78 1017.8
20260507121514 48 345 0.0 0.9 0.00 0.00 0.00 78 1017.9
20260507121010 47 118 0.9 5.2 0.00 0.00 0.00 79 1017.9
20260507120506 46 141 0.9 1.7 0.00 0.00 0.00 80 1017.9
20260507120004 45 113 0.0 0.9 0.00 0.00 0.00 82 1017.8
20260507115459 44 111 0.0 0.9 0.00 0.00 0.00 83 1017.8
20260507114955 43 111 0.0 0.0 0.00 0.00 0.00 85 1017.7
20260507114451 43 112 0.0 0.0 0.00 0.00 0.00 84 1017.7
20260507113949 44 114 0.0 0.0 0.00 0.00 0.00 83 1017.7
20260507113446 44 121 0.0 0.9 0.00 0.00 0.00 81 1017.7
20260507112943 44 108 0.0 0.0 0.00 0.00 0.00 80 1017.7
20260507112440 44 116 0.0 0.0 0.00 0.00 0.00 80 1017.6
20260507111937 44 107 0.0 0.0 0.00 0.00 0.00 80 1017.6
20260507111435 44 116 0.0 0.0 0.00 0.00 0.00 80 1017.7
20260507110931 44 110 0.0 0.0 0.00 0.00 0.00 80 1017.7
20260507110427 44 104 0.0 0.0 0.00 0.00 0.00 80 1017.8
20260507105924 44 105 0.0 0.0 0.00 0.00 0.00 79 1017.6
20260507105421 44 106 0.0 0.0 0.00 0.00 0.00 79 1017.7
20260507104917 44 115 0.0 0.0 0.00 0.00 0.00 79 1017.7
20260507104415 45 113 0.0 0.0 0.00 0.00 0.00 78 1017.5
20260507103910 44 123 0.0 0.0 0.00 0.00 0.00 77 1017.6
20260507103407 44 124 0.0 0.9 0.00 0.00 0.00 78 1017.6
20260507102903 44 118 0.0 1.7 0.00 0.00 0.00 78 1017.6
20260507102400 44 114 0.0 0.0 0.00 0.00 0.00 78 1017.6
20260507101856 44 120 0.0 0.0 0.00 0.00 0.00 78 1017.5
20260507101356 44 118 0.0 0.0 0.00 0.00 0.00 79 1017.7
20260507100854 44 118 0.0 0.0 0.00 0.00 0.00 77 1017.5
20260507100351 44 114 0.0 0.0 0.00 0.00 0.00 78 1017.7
20260507095849 44 115 0.0 0.0 0.00 0.00 0.00 77 1017.8
20260507095345 44 118 0.0 0.0 0.00 0.00 0.00 76 1017.7
20260507094843 45 123 0.0 0.0 0.00 0.00 0.00 76 1017.9
20260507094339 44 117 0.0 0.0 0.00 0.00 0.00 77 1017.9
20260507093837 44 128 0.0 0.0 0.00 0.00 0.00 77 1018.0
20260507093335 44 117 0.0 0.0 0.00 0.00 0.00 76 1018.1
20260507092832 44 117 0.0 0.0 0.00 0.00 0.00 75 1018.0
20260507092328 44 118 0.0 0.0 0.00 0.00 0.00 76 1018.1
20260507091825 43 116 0.0 1.7 0.00 0.00 0.00 76 1018.0
20260507091322 43 121 0.0 0.0 0.00 0.00 0.00 76 1018.1
20260507090817 43 116 0.0 0.0 0.00 0.00 0.00 77 1018.2
20260507090314 43 113 0.0 0.0 0.00 0.00 0.00 76 1018.0
20260507085811 43 117 0.0 0.0 0.00 0.00 0.00 77 1018.2
20260507085308 43 120 0.0 0.0 0.00 0.00 0.00 77 1018.1
20260507084805 43 117 0.0 0.0 0.00 0.00 0.00 76 1018.3
20260507084301 43 117 0.0 0.0 0.00 0.00 0.00 75 1018.0
20260507083759 43 126 0.0 0.0 0.00 0.00 0.00 75 1018.1
20260507083255 43 117 0.0 0.0 0.00 0.00 0.00 76 1018.2
20260507082751 44 117 0.0 0.0 0.00 0.00 0.00 75 1018.1
20260507082247 44 116 0.0 0.0 0.00 0.00 0.00 75 1018.1
20260507081744 43 110 0.0 0.0 0.00 0.00 0.00 75 1018.0
20260507081240 43 106 0.0 0.0 0.00 0.00 0.00 76 1018.1
20260507080737 43 117 0.0 0.0 0.00 0.00 0.00 77 1018.1
20260507080233 42 125 0.0 0.0 0.00 0.00 0.00 78 1018.1
20260507075729 42 117 0.0 0.0 0.00 0.00 0.00 78 1018.1
20260507075225 42 117 0.0 0.0 0.00 0.00 0.00 80 1018.1
20260507074721 42 118 0.0 0.0 0.00 0.00 0.00 78 1018.0
20260507074220 42 118 0.0 0.0 0.00 0.00 0.00 77 1018.3
20260507073716 42 116 0.0 0.0 0.00 0.00 0.00 76 1018.1
20260507073213 43 116 0.0 0.0 0.00 0.00 0.00 77 1018.3
20260507072710 43 113 0.0 0.0 0.00 0.00 0.00 75 1018.3
20260507072208 44 112 0.0 0.0 0.00 0.00 0.00 75 1018.2
20260507071705 44 119 0.0 0.0 0.00 0.00 0.00 71 1018.3
20260507071201 45 119 0.0 0.0 0.00 0.00 0.00 70 1018.4
20260507070659 45 119 0.0 0.0 0.00 0.00 0.00 69 1018.6
20260507070155 46 107 0.0 0.0 0.00 0.00 0.00 69 1018.7
20260507065651 46 118 0.0 0.0 0.00 0.00 0.00 69 1018.7
20260507065148 46 114 0.0 0.0 0.00 0.00 0.00 68 1018.8
20260507064646 47 114 0.0 0.0 0.00 0.00 0.00 68 1018.8
20260507064144 47 111 0.0 0.9 0.00 0.00 0.00 66 1018.9
20260507063642 47 118 0.0 0.0 0.00 0.00 0.00 68 1018.9
20260507063138 46 121 0.0 0.0 0.00 0.00 0.00 68 1018.9
20260507062635 46 120 0.0 0.0 0.00 0.00 0.00 71 1018.8
20260507062133 45 115 0.0 0.0 0.00 0.00 0.00 75 1019.2
20260507061631 45 116 0.0 0.0 0.00 0.00 0.00 76 1018.9
20260507061128 45 117 0.0 0.0 0.00 0.00 0.00 75 1018.8
20260507060626 45 117 0.0 0.0 0.00 0.00 0.00 74 1019.0
20260507060122 46 117 0.0 0.0 0.00 0.00 0.00 75 1019.0
20260507055618 46 117 0.0 0.0 0.00 0.00 0.00 75 1018.9
20260507055114 46 117 0.0 0.0 0.00 0.00 0.00 75 1019.0
20260507054610 45 117 0.0 0.0 0.00 0.00 0.00 76 1018.9
20260507054107 45 117 0.0 0.0 0.00 0.00 0.00 78 1019.1
20260507053605 45 117 0.0 0.0 0.00 0.00 0.00 78 1018.9
20260507053104 45 117 0.0 0.0 0.00 0.00 0.00 78 1019.0
20260507052601 44 117 0.0 0.0 0.00 0.00 0.00 81 1019.2
20260507052058 44 117 0.0 0.0 0.00 0.00 0.00 81 1019.0
20260507051555 43 117 0.0 0.0 0.00 0.00 0.00 82 1019.1
20260507051052 43 117 0.0 0.0 0.00 0.00 0.00 82 1019.1
20260507050549 43 117 0.0 0.0 0.00 0.00 0.00 82 1019.0
20260507050045 43 117 0.0 0.0 0.00 0.00 0.00 83 1019.0
20260507045542 43 117 0.0 0.0 0.00 0.01 0.01 83 1019.1
20260507045039 42 117 0.0 0.0 0.00 0.01 0.01 84 1019.1
20260507044535 42 117 0.0 0.0 0.00 0.01 0.01 83 1019.1
20260507044032 42 117 0.0 0.0 0.00 0.01 0.01 84 1019.1
20260507043528 43 117 0.0 0.0 0.00 0.01 0.01 82 1018.9
20260507043026 44 117 0.0 0.0 0.00 0.01 0.01 81 1019.1
20260507042521 44 117 0.0 0.0 0.00 0.01 0.01 80 1019.1
20260507042017 43 117 0.0 0.0 0.00 0.01 0.01 82 1019.0
20260507041514 43 117 0.0 0.0 0.00 0.01 0.01 83 1019.0
20260507041011 43 117 0.0 0.0 0.00 0.01 0.01 83 1019.1
20260507040507 43 117 0.0 0.0 0.00 0.01 0.01 82 1019.2
20260507040003 43 117 0.0 0.0 0.00 0.01 0.01 82 1019.4
20260507035500 44 117 0.0 0.0 0.00 0.01 0.01 81 1019.4
20260507034956 44 117 0.0 0.0 0.00 0.01 0.01 80 1019.4
20260507034453 44 117 0.0 0.0 0.00 0.01 0.01 79 1019.5
20260507033951 44 117 0.0 0.0 0.00 0.01 0.01 77 1019.2
20260507033449 44 117 0.0 0.0 0.00 0.01 0.01 76 1019.2
20260507032946 44 117 0.0 0.0 0.00 0.01 0.01 77 1019.3
20260507032443 43 117 0.0 0.0 0.00 0.01 0.01 77 1019.1
20260507031939 44 116 0.0 0.0 0.00 0.01 0.01 77 1019.2
20260507031435 44 116 0.0 0.0 0.00 0.01 0.01 77 1019.2
20260507030932 44 117 0.0 0.0 0.00 0.01 0.01 77 1019.2
20260507030430 44 117 0.0 0.0 0.00 0.01 0.01 77 1019.3
20260507025927 45 117 0.0 0.0 0.00 0.01 0.01 76 1019.4
20260507025424 45 117 0.0 0.0 0.00 0.01 0.01 74 1019.2
20260507024922 45 117 0.0 0.0 0.00 0.01 0.01 74 1019.1
20260507024419 45 117 0.0 0.0 0.00 0.01 0.01 73 1019.1
20260507023914 45 117 0.0 0.0 0.00 0.01 0.01 73 1019.0
20260507023411 46 117 0.0 0.0 0.00 0.01 0.01 71 1019.1
20260507022909 46 117 0.0 0.0 0.00 0.01 0.01 71 1019.0
20260507022405 46 117 0.0 0.0 0.00 0.01 0.01 69 1018.9
20260507021901 46 117 0.0 0.0 0.00 0.01 0.01 67 1018.8
20260507021356 47 117 0.0 0.0 0.00 0.01 0.01 67 1018.9
20260507020855 47 117 0.0 0.0 0.00 0.01 0.01 65 1018.8
20260507020351 48 117 0.0 0.0 0.00 0.01 0.01 64 1019.0
20260507015848 48 117 0.0 0.0 0.00 0.01 0.01 63 1018.6
20260507015346 49 117 0.0 0.0 0.00 0.01 0.01 62 1018.6
20260507014843 49 117 0.0 0.0 0.00 0.01 0.01 60 1018.6
20260507014339 49 119 0.0 0.0 0.00 0.01 0.01 60 1018.7
20260507013836 50 120 0.0 0.0 0.00 0.01 0.01 56 1018.6
20260507013333 50 119 0.0 0.0 0.00 0.01 0.01 56 1018.6
20260507012830 51 119 0.0 0.0 0.00 0.01 0.01 53 1018.4
20260507012326 51 119 0.0 0.0 0.00 0.01 0.01 51 1018.7
20260507011823 52 120 0.0 0.0 0.00 0.01 0.01 49 1018.4
20260507011320 53 119 0.0 0.0 0.00 0.01 0.01 47 1018.4
20260507010820 54 120 0.0 0.0 0.00 0.01 0.01 46 1018.3
20260507010315 55 97 0.0 0.0 0.00 0.01 0.01 43 1018.3
20260507005813 55 133 0.0 0.0 0.00 0.01 0.01 42 1018.3
20260507005310 56 126 0.0 0.0 0.00 0.01 0.01 42 1018.3
20260507004806 57 102 0.0 0.0 0.00 0.01 0.01 40 1018.3
20260507004304 56 160 1.7 2.6 0.00 0.01 0.01 39 1018.1
20260507003800 57 119 1.7 5.2 0.00 0.01 0.01 39 1018.3
20260507003255 57 98 0.0 0.9 0.00 0.01 0.01 38 1018.2
20260507002751 58 126 0.0 0.9 0.00 0.01 0.01 37 1018.2
20260507002247 59 186 0.0 3.5 0.00 0.01 0.01 37 1018.2
20260507001745 59 119 0.9 2.6 0.00 0.01 0.01 36 1018.4
20260507001242 59 107 0.0 2.6 0.00 0.01 0.01 38 1018.3
20260507000738 60 125 0.0 0.9 0.00 0.01 0.01 36 1018.1
20260507000234 60 109 0.0 0.9 0.00 0.01 0.01 35 1018.3
20260506235731 60 104 0.9 0.9 0.00 0.01 0.01 36 1018.4
20260506235226 60 122 0.0 2.6 0.00 0.01 0.01 36 1018.1
20260506234723 60 30 1.7 3.5 0.00 0.01 0.01 35 1018.3
20260506234221 60 130 1.7 5.2 0.00 0.01 0.01 38 1018.2
20260506233718 60 113 0.0 5.2 0.00 0.01 0.01 36 1018.3
20260506233215 60 150 0.9 3.5 0.00 0.01 0.01 36 1018.1
20260506232711 61 287 3.5 3.5 0.00 0.01 0.01 35 1018.2
20260506232206 60 159 0.0 5.2 0.00 0.01 0.01 36 1018.1
20260506231704 61 41 0.0 1.7 0.00 0.01 0.01 35 1018.1
20260506231202 61 147 0.0 3.5 0.00 0.01 0.01 37 1018.3
20260506230658 60 200 1.7 2.6 0.00 0.01 0.01 38 1018.3
20260506230155 61 214 3.5 3.5 0.00 0.01 0.01 36 1018.2
20260506225652 62 158 0.9 2.6 0.00 0.01 0.01 36 1018.0
20260506225149 61 171 3.5 3.5 0.00 0.01 0.01 34 1018.2
20260506224645 61 34 0.0 0.9 0.00 0.01 0.01 37 1018.2
20260506224142 61 357 0.0 6.1 0.00 0.01 0.01 38 1018.1
20260506223638 62 209 0.9 2.6 0.00 0.01 0.01 35 1018.1
20260506223134 62 201 1.7 3.5 0.00 0.01 0.01 34 1018.3
20260506222631 62 133 2.6 5.2 0.00 0.01 0.01 35 1018.4
20260506222127 62 101 0.0 3.5 0.00 0.01 0.01 38 1018.3
20260506221625 61 141 0.0 5.2 0.00 0.01 0.01 37 1018.1
20260506221123 61 116 0.0 1.7 0.00 0.01 0.01 38 1018.2
20260506220620 61 225 3.5 5.2 0.00 0.01 0.01 36 1018.6
20260506220114 62 107 1.7 5.2 0.00 0.01 0.01 35 1018.4
20260506215612 62 100 0.0 6.1 0.00 0.01 0.01 37 1018.7
20260506215107 61 50 0.0 3.5 0.00 0.01 0.01 36 1018.6
20260506214604 61 117 0.0 3.5 0.00 0.01 0.01 35 1018.2
20260506214102 61 34 0.0 3.5 0.00 0.01 0.01 38 1018.7
20260506213600 61 93 1.7 3.5 0.00 0.01 0.01 35 1018.8
20260506213057 62 150 0.9 6.1 0.00 0.01 0.01 40 1018.9
20260506212554 62 92 0.0 1.7 0.00 0.01 0.01 42 1018.7
20260506212048 61 151 2.6 3.5 0.00 0.01 0.01 37 1018.6
20260506211544 61 87 3.5 6.1 0.00 0.01 0.01 37 1018.7
20260506211042 61 280 2.6 3.5 0.00 0.01 0.01 38 1018.9
20260506210538 61 116 0.9 2.6 0.00 0.01 0.01 37 1018.8
20260506210035 61 133 0.9 5.2 0.00 0.01 0.01 40 1018.9
20260506205532 62 46 0.9 2.6 0.00 0.01 0.01 42 1018.9
20260506205027 61 330 4.3 7.0 0.00 0.01 0.01 36 1019.0
20260506204525 60 152 0.9 2.6 0.00 0.01 0.01 35 1019.4
20260506204022 61 300 2.6 3.5 0.00 0.01 0.01 38 1019.3
20260506203520 61 6 1.7 3.5 0.00 0.01 0.01 36 1019.4
20260506203016 61 130 0.9 7.0 0.00 0.01 0.01 44 1019.3
20260506202514 61 231 0.9 1.7 0.00 0.01 0.01 36 1019.4
20260506202010 60 211 0.0 3.5 0.00 0.01 0.01 37 1019.6
20260506201508 60 81 0.0 1.7 0.00 0.01 0.01 45 1019.6
20260506201004 60 256 1.7 6.1 0.00 0.01 0.01 40 1019.7
20260506200500 59 196 1.7 3.5 0.00 0.01 0.01 39 1019.5
20260506195956 60 199 1.7 2.6 0.00 0.01 0.01 44 1019.7
20260506195454 61 151 0.0 5.2 0.00 0.01 0.01 38 1019.8
20260506194950 61 53 0.9 2.6 0.00 0.01 0.01 41 1019.6
20260506194448 59 122 0.9 7.8 0.00 0.01 0.01 41 1019.6
20260506193944 59 241 2.6 5.2 0.00 0.01 0.01 37 1019.8
20260506193442 59 113 0.0 5.2 0.00 0.01 0.01 39 1019.7
20260506192938 59 225 0.9 5.2 0.00 0.01 0.01 39 1019.6
20260506192435 60 111 3.5 6.1 0.00 0.01 0.01 39 1019.6
20260506191932 60 154 0.0 3.5 0.00 0.01 0.01 45 1019.7
20260506191428 60 185 0.9 5.2 0.00 0.01 0.01 42 1019.7
20260506190925 60 49 0.9 2.6 0.00 0.01 0.01 42 1019.8
20260506190422 60 221 1.7 6.1 0.00 0.01 0.01 38 1019.8
20260506185919 59 146 0.9 2.6 0.00 0.01 0.01 42 1019.8
20260506185416 59 84 0.9 2.6 0.00 0.01 0.01 38 1019.9
20260506184913 59 49 0.9 5.2 0.00 0.01 0.01 48 1020.0
20260506184410 59 94 1.7 7.0 0.00 0.01 0.01 40 1020.0
20260506183907 58 98 0.9 8.7 0.00 0.01 0.01 47 1020.1
20260506183402 59 111 0.0 1.7 0.00 0.01 0.01 44 1020.1
20260506182900 58 132 0.9 5.2 0.00 0.01 0.01 46 1020.1
20260506182357 57 247 3.5 5.2 0.00 0.01 0.01 40 1020.1
20260506181854 58 111 0.9 3.5 0.00 0.01 0.01 46 1020.2
20260506181352 57 133 0.9 1.7 0.00 0.01 0.01 39 1020.2
20260506180849 57 137 0.0 0.9 0.00 0.01 0.01 43 1020.2
20260506180345 56 126 3.5 3.5 0.00 0.01 0.01 42 1020.1
20260506175842 56 305 3.5 5.2 0.00 0.01 0.01 39 1020.2
20260506175338 56 107 0.0 3.5 0.00 0.01 0.01 44 1020.3
20260506174835 56 166 0.9 1.7 0.00 0.01 0.01 42 1020.3
20260506174333 56 245 1.7 3.5 0.00 0.01 0.01 42 1020.3
20260506173830 56 141 2.6 2.6 0.00 0.01 0.01 39 1020.5
20260506173327 56 79 0.9 3.5 0.00 0.01 0.01 42 1020.3
20260506172824 56 130 0.0 3.5 0.00 0.01 0.01 41 1020.4
20260506172321 57 72 2.6 3.5 0.00 0.01 0.01 39 1020.4
20260506171818 57 69 0.9 5.2 0.00 0.01 0.01 44 1020.5
20260506171315 57 189 1.7 3.5 0.00 0.01 0.01 39 1020.3
20260506170813 57 181 4.3 6.1 0.00 0.01 0.01 39 1020.4
20260506170308 59 324 4.3 6.1 0.00 0.01 0.01 38 1020.2
20260506165808 58 95 0.0 1.7 0.00 0.01 0.01 46 1020.2
20260506165306 55 115 1.7 2.6 0.00 0.01 0.01 43 1020.3
20260506164801 56 66 0.0 2.6 0.00 0.01 0.01 44 1020.2
20260506164258 55 109 0.0 2.6 0.00 0.01 0.01 42 1020.2
20260506163755 55 96 0.0 1.7 0.00 0.01 0.01 49 1020.3
20260506163250 55 103 0.0 0.9 0.00 0.01 0.01 45 1020.2
20260506162746 55 293 3.5 3.5 0.00 0.01 0.01 43 1020.4
20260506162244 55 275 2.6 5.2 0.00 0.01 0.01 42 1020.3
20260506161741 55 81 0.9 2.6 0.00 0.01 0.01 45 1020.3
20260506161238 56 0 0.9 3.5 0.00 0.01 0.01 42 1020.1
20260506160736 55 108 0.0 2.6 0.00 0.01 0.01 47 1020.1
20260506160232 55 96 0.9 9.6 0.00 0.01 0.01 46 1020.1
20260506155731 55 125 0.0 2.6 0.00 0.01 0.01 45 1020.0